Theta_e
324 323 323 323 323 323 323 323 325 324 324 325 325 323 323 321 321 322 322 322 322 321
324 323 323 324 325 325 324 326 325 325 324 325 324 324 321 321 322 322 321 321 323 321
324 325 324 324 323 325 325 327 327 325 325 324 323 323 322 321 324 321 323 322 321 320
324 325 324 324 325 325 325 326 326 326 324 323 323 323 322 320 324 324 323 323 322 320
324 324 322 324 325 326 325 325 326 326 325 326 327 323 321 323 326 323 321 321 322 318
323 323 323 323 325 325 325 325 326 324 325 324 326 326 323 325 325 323 320 320 319 321
324 323 323 323 324 325 325 325 324 324 325 326 326 325 325 325 323 321 321 323 321 323
328 324 324 324 324 325 324 324 325 327 326 326 327 326 324 324 323 322 322 324 325 324
326 325 324 324 323 324 323 323 323 321 322 322 321 305 314 320 322 322 320 319 320 321
327 325 325 325 323 322 320 320 319 319 321 318 314 302 308 313 321 319 319 320 320 321
325 325 325 324 322 320 320 319 320 320 316 315 312 300 304 312 325 322 320 320 320 319
324 325 324 322 320 320 321 318 316 318 315 314 314 301 305 318 322 321 319 320 322 321
326 325 323 321 320 320 319 319 319 318 315 312 316 301 306 316 321 319 318 317 316 307
325 325 324 321 320 319 320 319 317 315 315 319 317 310 301 308 316 318 318 317 316 312
Wind_Speed
7 5 4 5 4 4 3 3 3 5 5 6 4 4 4 3 3 5 4 5 5 3
6 7 6 5 4 3 2 2 4 5 5 4 5 5 5 3 4 4 4 5 4 3
6 6 5 4 4 3 3 4 5 5 4 4 4 6 5 2 2 4 3 3 4 2
6 6 5 4 4 4 3 5 5 5 5 5 5 5 4 3 4 4 4 3 4 4
6 5 5 4 4 4 4 4 5 5 5 5 6 5 4 4 4 5 4 4 4 4
6 5 4 4 4 3 4 4 3 3 5 5 6 5 4 3 5 4 3 4 3 3
6 6 5 4 4 4 3 5 4 4 4 4 5 5 4 4 5 5 3 2 3 5
6 6 5 5 4 4 3 4 4 5 5 5 4 3 5 5 6 6 5 3 4 4
7 7 6 5 5 5 4 5 6 6 6 5 4 3 8 7 6 5 5 5 4 3
7 7 6 6 6 5 5 5 6 6 6 6 5 5 7 8 4 4 4 5 5 5
6 7 6 6 6 5 4 6 5 5 6 6 3 3 6 7 5 5 5 4 5 6
6 9 7 7 6 4 6 5 3 5 6 6 3 0 8 6 5 6 5 4 5 6
9 10 8 7 7 4 5 5 5 5 5 7 4 5 9 6 4 5 4 4 4 7
8 10 8 7 4 6 6 6 5 6 4 5 4 3 6 9 4 4 3 3 3 3
Wind_Direction
127 121 124 145 155 175 190 202 182 186 184 190 179 179 159 171 199 193 197 187 217 213
117 124 139 148 150 173 169 191 166 164 172 176 175 160 169 193 199 181 176 184 174 160
147 135 146 133 145 167 174 162 152 164 166 150 174 168 184 170 175 148 134 139 140 147
135 147 138 144 174 177 161 157 165 165 160 156 158 183 166 165 165 172 155 167 165 185
138 136 126 134 159 169 162 159 173 175 165 181 174 174 168 197 147 158 176 185 189 194
138 132 146 156 153 164 151 173 191 150 160 148 158 157 189 159 162 179 176 182 177 143
146 160 161 164 156 153 166 167 176 166 150 139 131 131 131 116 114 127 120 154 182 123
154 156 150 139 132 137 145 161 142 114 91 88 97 120 121 116 108 115 116 100 105 110
146 150 154 135 122 128 118 118 111 101 102 90 77 353 129 125 121 131 132 114 101 110
155 147 161 142 133 141 131 113 111 107 107 90 92 49 130 127 126 135 129 125 117 99
170 144 146 138 138 143 125 123 126 111 109 111 77 43 118 101 94 88 96 111 109 104
156 145 147 147 149 138 120 121 128 125 129 115 102 116 118 99 81 79 75 79 87 123
153 151 155 153 152 133 134 133 125 118 130 127 124 93 115 104 101 96 90 64 61 77
151 152 149 144 139 130 124 118 114 121 120 112 114 108 142 127 115 123 101 106 95 86